Date,TemperatureHighF,TemperatureAvgF,TemperatureLowF,DewpointHighF,DewpointAvgF,DewpointLowF,HumidityHigh,HumidityAvg,HumidityLow,PressureMaxIn,PressureMinIn,WindSpeedMaxMPH,WindSpeedAvgMPH,GustSpeedMaxMPH,PrecipitationSumIn
2014-3-1,70,55,43,48,44,41,99,72,41,29.91,29.78,2,0,2,0.00
2014-3-2,72,61,45,60,51,44,99,73,49,29.81,29.42,2,0,2,0.00
2014-3-3,62,54,46,54,47,41,99,79,51,29.69,29.39,14,1,14,0.00
2014-3-4,53,50,48,50,47,40,99,90,67,29.74,29.60,21,0,21,0.00
2014-3-5,63,54,48,60,53,48,99,98,90,30.02,29.72,15,0,15,0.00
2014-3-6,68,57,44,59,54,43,99,88,71,30.08,30.00,2,0,2,0.00
2014-3-7,69,60,54,62,58,54,99,91,71,30.09,29.97,1,0,1,0.00
2014-3-8,78,62,55,64,59,55,99,91,57,30.06,29.96,3,0,3,0.00
2014-3-9,64,58,53,63,58,53,99,99,97,30.25,30.05,0,0,0,0.00
2014-3-10,69,60,53,62,57,53,99,90,72,30.30,30.21,2,0,2,0.00
2014-3-11,65,59,56,62,58,55,99,97,88,30.29,30.18,1,0,1,0.00
2014-3-12,60,59,56,60,58,56,99,99,99,30.22,29.93,0,0,0,0.00
2014-3-13,60,57,32,60,60,60,99,89,99,30.03,29.88,0,0,0,0.00
2014-3-14,68,39,32,61,59,57,99,23,79,30.22,29.91,1,0,1,0.00
2014-3-15,71,61,57,62,59,57,99,93,70,29.96,29.77,8,0,8,0.00
2014-3-16,71,61,60,64,61,49,99,99,99,29.78,29.12,18,2,18,0.00
2014-3-17,82,69,60,75,64,60,99,88,67,29.44,29.15,2,0,2,0.00
2014-3-18,77,65,59,66,62,59,99,91,70,29.86,29.42,2,0,2,0.21
2014-3-19,71,62,57,66,60,57,99,95,77,29.86,29.71,1,0,1,0.00
2014-3-20,78,60,52,68,55,49,99,84,56,30.10,29.68,4,0,4,0.00
2014-3-21,69,58,45,60,53,45,99,85,68,30.14,30.07,2,0,2,0.00
2014-3-22,68,60,54,57,52,48,92,78,62,30.09,30.00,3,0,3,0.00
2014-3-23,68,60,54,58,54,49,99,81,63,30.01,29.74,8,0,8,0.00
2014-3-24,76,63,49,64,58,49,99,85,52,29.75,29.58,2,0,2,0.00
2014-3-25,73,54,48,64,53,48,99,96,66,29.82,29.48,18,1,18,0.33
2014-3-26,68,54,41,54,48,41,99,82,52,29.83,29.70,3,0,3,0.00
2014-3-27,72,62,45,56,53,44,99,74,58,29.91,29.73,1,0,1,0.00
2014-3-28,72,72,72,56,56,56,58,58,58,29.92,29.80,0,0,0,0.00
2014-3-29,72,72,72,56,56,56,58,58,58,29.87,29.80,0,0,0,0.00
2014-3-30,72,72,72,56,56,56,58,58,58,29.94,29.83,0,0,0,0.00
2014-3-31,72,72,72,56,56,56,58,58,58,30.00,29.92,0,0,0,0.00